Regional Weather Roundup
Issued by NWS

Home | Current Version | Previous Version | Graphics & Text | Print | Product List | Glossary On
Versions: 1 2 3 4 5 6 7 8 9 10 11 12 13 14 15 16 17 18 19 20 21 22 23 24 25 26 27 28 29 30 31 32 33 34 35 36 37 38 39 40 41 42 43 44 45 46 47 48 49 50
000
ASUS43 KOAX 301410
RWRNE

WEATHER ROUNDUP FOR NEBRASKA
NATIONAL WEATHER SERVICE OMAHA NE
900 AM CDT FRI SEP 30 2016

NOTES: SATELLITE DATA IS BEING USED TO AUGMENT CLOUD COVER ABOVE
       12000 FEET.
       "FAIR" INDICATES FEW OR NO CLOUDS BELOW 12,000 FEET WITH NO
       SIGNIFICANT WEATHER AND/OR OBSTRUCTIONS TO VISIBILITY.

  * THESE STATIONS DO NOT REPORT WEATHER SUCH AS RAIN...SNOW OR FOG.

NEZ001>004-019>022-054>056-301500-
NEBRASKA PANHANDLE

CITY           SKY/WX    TMP DP  RH WIND       PRES   REMARKS
SCOTTSBLUFF    MOSUNNY   47  40  76 E9        30.19F
ALLIANCE       MOSUNNY   47  41  80 S13       30.20R
CHADRON        CLOUDY    55  40  56 S10       30.14S
KIMBALL        CLOUDY    47  43  87 W3        30.22S
SIDNEY         CLOUDY    44  40  85 S7        30.22S
$$

NEZ057>060-069>072-079>082-301500-
SOUTHWEST NEBRASKA

CITY           SKY/WX    TMP DP  RH WIND       PRES   REMARKS
NORTH PLATTE   CLOUDY    48  45  89 E7        30.26S
IMPERIAL       CLOUDY    48  43  82 SE12      30.23F
LEXINGTON      SUNNY     48  45  88 SE5       30.28S
MCCOOK         CLOUDY    50  45  83 E6        30.25F
OGALLALA       CLOUDY    49  45  84 CALM      30.24S
$$

NEZ005>010-023>029-035>040-094-301500-
NORTH CENTRAL NEBRASKA

CITY           SKY/WX    TMP DP  RH WIND       PRES   REMARKS
VALENTINE      SUNNY     53  44  71 S14       30.23F
AINSWORTH      SUNNY     51  46  85 S10       30.26S
BROKEN BOW     SUNNY     47  45  93 SE5       30.28S
O`NEILL        CLOUDY    49  46  88 S5        30.30S
ORD            FOG       42  40  92 E3        30.29S VSB 1/4
THEDFORD       MOSUNNY   50  47  87 S7        30.26F
$$

NEZ041-046>049-061>064-073>077-083>087-301500-
SOUTH CENTRAL NEBRASKA

CITY           SKY/WX    TMP DP  RH WIND       PRES   REMARKS
GRAND ISLAND   SUNNY     48  46  93 NE3       30.32R
AURORA         SUNNY     49  49  99 CALM      30.31S
HASTINGS       SUNNY     51  46  83 CALM      30.32R
HEBRON         SUNNY     46  44  93 CALM      30.31S
HOLDREGE       SUNNY     49  47  92 CALM      30.28F
KEARNEY *      SUNNY     46  43  87 E3        30.30S
YORK           SUNNY     48  46  93 CALM      30.32R
$$

NEZ011>018-030>034-042>045-301500-
NORTHEAST NEBRASKA

CITY           SKY/WX    TMP DP  RH WIND       PRES   REMARKS
NORFOLK        MOSUNNY   47  46  97 CALM      30.32S
ALBION         CLOUDY    44  42  93 CALM      30.32R
BLAIR          SUNNY     53  49  86 N3        30.30S
FREMONT        SUNNY     51  47  87 NW3       30.31F
TEKAMAH        SUNNY     51  47  86 N6        30.32S
WAYNE          FOG       43  42  94 CALM      30.34R VSB 1
$$

NEZ050>053-065>068-078-088>093-301500-
SOUTHEAST NEBRASKA

CITY           SKY/WX    TMP DP  RH WIND       PRES   REMARKS
LINCOLN        SUNNY     51  46  83 NW5       30.32S
OMAHA EPPLEY   MOSUNNY   51  46  83 N7        30.31S
BEATRICE       SUNNY     50  48  91 CALM      30.30S
FALLS CITY     SUNNY     52  49  89 NW6       30.28R
NEBRASKA CITY  SUNNY     54  49  84 N3        30.29S
PLATTSMOUTH    SUNNY     53  48  84 CALM      30.30S
$$

NEZ044-045-051>053-067-301500-
OMAHA AREA

CITY           SKY/WX    TMP DP  RH WIND       PRES   REMARKS
OMAHA EPPLEY   MOSUNNY   51  46  83 N7        30.31S
BLAIR          SUNNY     53  49  86 N3        30.30S
FREMONT        SUNNY     51  47  87 NW3       30.31F
MILLARD        SUNNY     53  48  84 CALM      30.30F
OFFUTT AFB     SUNNY     54  52  92 NE3       30.29S
PLATTSMOUTH    SUNNY     53  48  84 CALM      30.30S
WAHOO          FAIR      51  49  90 CALM      30.31S
$$




USA.gov is the U.S. government's official web portal to all federal, state and local government web resources and services.